<?xml version="1.0" encoding="UTF-8" standalone="no" ?><gpx xmlns="http://www.topografix.com/GPX/1/1" xmlns:gpxx="http://www.garmin.com/xmlschemas/GpxExtensions/v3" xmlns:wptx1="http://www.garmin.com/xmlschemas/WaypointExtension/v1" xmlns:gpxtpx="http://www.garmin.com/xmlschemas/TrackPointExtension/v1" creator="GuideVTT.com" version="1.1" xmlns:xsi="http://www.w3.org/2001/XMLSchema-instance" xsi:schemaLocation="http://www.topografix.com/GPX/1/1 http://www.topografix.com/GPX/1/1/gpx.xsd http://www.garmin.com/xmlschemas/GpxExtensions/v3 http://www8.garmin.com/xmlschemas/GpxExtensionsv3.xsd http://www.garmin.com/xmlschemas/WaypointExtension/v1 http://www8.garmin.com/xmlschemas/WaypointExtensionv1.xsd http://www.garmin.com/xmlschemas/TrackPointExtension/v1 http://www.garmin.com/xmlschemas/TrackPointExtensionv1.xsd">
<metadata><link href="http://www.garmin.com"><text>Garmin International</text></link><time>2013-06-22T15:13:50Z</time></metadata>
<trk><name>vinneuf.gpx</name><extensions><gpxx:TrackExtension><gpxx:DisplayColor>Cyan</gpxx:DisplayColor></gpxx:TrackExtension></extensions><trkseg>
<trkpt lat="48.35140210" lon="3.13397260"><ele>85</ele><time>2007-02-15T08:05:47Z</time></trkpt>
<trkpt lat="48.35175040" lon="3.13397790"><ele>88</ele><time>2007-02-15T08:05:47Z</time></trkpt>
<trkpt lat="48.35190750" lon="3.13401400"><ele>89</ele><time>2007-02-15T08:05:47Z</time></trkpt>
<trkpt lat="48.35252590" lon="3.13398970"><ele>92</ele><time>2007-02-15T08:05:47Z</time></trkpt>
<trkpt lat="48.35324230" lon="3.13440530"><ele>96</ele><time>2007-02-15T08:05:47Z</time></trkpt>
<trkpt lat="48.35378820" lon="3.13512180"><ele>98</ele><time>2007-02-15T08:05:47Z</time></trkpt>
<trkpt lat="48.35467100" lon="3.13587720"><ele>100</ele><time>2007-02-15T08:05:47Z</time></trkpt>
<trkpt lat="48.35668370" lon="3.13739190"><ele>102</ele><time>2007-02-15T08:05:47Z</time></trkpt>
<trkpt lat="48.35702510" lon="3.13677310"><ele>100</ele><time>2007-02-15T08:05:47Z</time></trkpt>
<trkpt lat="48.35730740" lon="3.13657510"><ele>99</ele><time>2007-02-15T08:05:47Z</time></trkpt>
<trkpt lat="48.35779110" lon="3.13651500"><ele>100</ele><time>2007-02-15T08:05:47Z</time></trkpt>
<trkpt lat="48.35826820" lon="3.13576340"><ele>102</ele><time>2007-02-15T08:05:47Z</time></trkpt>
<trkpt lat="48.35881130" lon="3.13523200"><ele>103</ele><time>2007-02-15T08:05:47Z</time></trkpt>
<trkpt lat="48.35898130" lon="3.13501540"><ele>104</ele><time>2007-02-15T08:05:47Z</time></trkpt>
<trkpt lat="48.35891480" lon="3.13487950"><ele>103</ele><time>2007-02-15T08:05:47Z</time></trkpt>
<trkpt lat="48.35812290" lon="3.13564320"><ele>101</ele><time>2007-02-15T08:05:47Z</time></trkpt>
<trkpt lat="48.35744110" lon="3.13509310"><ele>96</ele><time>2007-02-15T08:05:47Z</time></trkpt>
<trkpt lat="48.35724040" lon="3.13485400"><ele>94</ele><time>2007-02-15T08:05:47Z</time></trkpt>
<trkpt lat="48.35669500" lon="3.13407000"><ele>88</ele><time>2007-02-15T08:05:47Z</time></trkpt>
<trkpt lat="48.35570520" lon="3.13252030"><ele>79</ele><time>2007-02-15T08:05:47Z</time></trkpt>
<trkpt lat="48.35495860" lon="3.13156470"><ele>76</ele><time>2007-02-15T08:05:47Z</time></trkpt>
<trkpt lat="48.35420040" lon="3.13065950"><ele>72</ele><time>2007-02-15T08:05:47Z</time></trkpt>
<trkpt lat="48.35376560" lon="3.13014700"><ele>70</ele><time>2007-02-15T08:05:47Z</time></trkpt>
<trkpt lat="48.35397110" lon="3.12966110"><ele>71</ele><time>2007-02-15T08:05:47Z</time></trkpt>
<trkpt lat="48.35400780" lon="3.12922320"><ele>70</ele><time>2007-02-15T08:05:47Z</time></trkpt>
<trkpt lat="48.35401560" lon="3.12805980"><ele>69</ele><time>2007-02-15T08:05:47Z</time></trkpt>
<trkpt lat="48.35396370" lon="3.12741830"><ele>68</ele><time>2007-02-15T08:05:47Z</time></trkpt>
<trkpt lat="48.35394860" lon="3.12632200"><ele>67</ele><time>2007-02-15T08:05:47Z</time></trkpt>
<trkpt lat="48.35402460" lon="3.12504160"><ele>64</ele><time>2007-02-15T08:05:47Z</time></trkpt>
<trkpt lat="48.35409640" lon="3.12438500"><ele>64</ele><time>2007-02-15T08:05:47Z</time></trkpt>
<trkpt lat="48.35360040" lon="3.12371200"><ele>60</ele><time>2007-02-15T08:05:47Z</time></trkpt>
<trkpt lat="48.35295100" lon="3.12333130"><ele>59</ele><time>2007-02-15T08:05:47Z</time></trkpt>
<trkpt lat="48.35238040" lon="3.12463800"><ele>59</ele><time>2007-02-15T08:05:47Z</time></trkpt>
<trkpt lat="48.35169390" lon="3.12644880"><ele>60</ele><time>2007-02-15T08:05:47Z</time></trkpt>
<trkpt lat="48.35133050" lon="3.12701660"><ele>61</ele><time>2007-02-15T08:05:47Z</time></trkpt>
<trkpt lat="48.35047230" lon="3.12761070"><ele>59</ele><time>2007-02-15T08:05:47Z</time></trkpt>
<trkpt lat="48.35013230" lon="3.12804390"><ele>59</ele><time>2007-02-15T08:05:47Z</time></trkpt>
<trkpt lat="48.34886850" lon="3.12699750"><ele>56</ele><time>2007-02-15T08:05:47Z</time></trkpt>
<trkpt lat="48.34721480" lon="3.12555620"><ele>57</ele><time>2007-09-09T15:02:41Z</time></trkpt>
<trkpt lat="48.34578800" lon="3.12378130"><ele>59</ele><time>2007-02-15T08:05:47Z</time></trkpt>
<trkpt lat="48.34440440" lon="3.12227690"><ele>58</ele><time>2007-02-15T08:05:47Z</time></trkpt>
<trkpt lat="48.34333370" lon="3.12104700"><ele>58</ele><time>2007-02-15T08:05:47Z</time></trkpt>
<trkpt lat="48.34401480" lon="3.12183160"><ele>58</ele><time>2007-09-09T15:02:41Z</time></trkpt>
<trkpt lat="48.34506300" lon="3.12306120"><ele>58</ele><time>2007-09-09T15:02:41Z</time></trkpt>
<trkpt lat="48.34593240" lon="3.12415330"><ele>58</ele><time>2007-09-09T15:02:41Z</time></trkpt>
<trkpt lat="48.34677950" lon="3.12521140"><ele>58</ele><time>2007-09-09T15:02:41Z</time></trkpt>
<trkpt lat="48.34650390" lon="3.12608400"><ele>58</ele><time>2007-09-09T15:02:41Z</time></trkpt>
<trkpt lat="48.34602290" lon="3.12742550"><ele>58</ele><time>2007-09-09T15:02:41Z</time></trkpt>
<trkpt lat="48.34556590" lon="3.12853140"><ele>58</ele><time>2007-09-09T15:02:41Z</time></trkpt>
<trkpt lat="48.34504040" lon="3.12980480"><ele>58</ele><time>2007-09-09T15:02:41Z</time></trkpt>
<trkpt lat="48.34467350" lon="3.13087820"><ele>57</ele><time>2007-09-09T15:02:41Z</time></trkpt>
<trkpt lat="48.34556820" lon="3.13153250"><ele>57</ele><time>2007-02-15T08:05:47Z</time></trkpt>
<trkpt lat="48.34641620" lon="3.13245580"><ele>57</ele><time>2007-02-15T08:05:47Z</time></trkpt>
<trkpt lat="48.34643420" lon="3.13311360"><ele>57</ele><time>2007-02-15T08:05:47Z</time></trkpt>
<trkpt lat="48.34602150" lon="3.13432130"><ele>57</ele><time>2007-02-15T08:05:47Z</time></trkpt>
<trkpt lat="48.34581420" lon="3.13505990"><ele>57</ele><time>2007-02-15T08:05:47Z</time></trkpt>
<trkpt lat="48.34581140" lon="3.13546450"><ele>57</ele><time>2007-02-15T08:05:47Z</time></trkpt>
<trkpt lat="48.34587630" lon="3.13583640"><ele>57</ele><time>2007-02-15T08:05:47Z</time></trkpt>
<trkpt lat="48.34546510" lon="3.13680810"><ele>57</ele><time>2007-02-15T08:05:47Z</time></trkpt>
<trkpt lat="48.34514430" lon="3.13771360"><ele>57</ele><time>2007-02-15T08:05:47Z</time></trkpt>
<trkpt lat="48.34497670" lon="3.13922840"><ele>58</ele><time>2007-02-15T08:05:47Z</time></trkpt>
<trkpt lat="48.34478220" lon="3.14138350"><ele>59</ele><time>2007-02-15T08:05:47Z</time></trkpt>
<trkpt lat="48.34471010" lon="3.14205670"><ele>59</ele><time>2007-02-15T08:05:47Z</time></trkpt>
<trkpt lat="48.34560620" lon="3.14250890"><ele>60</ele><time>2007-02-15T08:05:47Z</time></trkpt>
<trkpt lat="48.34621230" lon="3.14261930"><ele>62</ele><time>2007-02-15T08:05:47Z</time></trkpt>
<trkpt lat="48.34722030" lon="3.14314060"><ele>65</ele><time>2007-02-15T08:05:47Z</time></trkpt>
<trkpt lat="48.34802660" lon="3.14355770"><ele>67</ele><time>2007-02-15T08:05:47Z</time></trkpt>
<trkpt lat="48.34833970" lon="3.14379860"><ele>68</ele><time>2007-02-15T08:05:47Z</time></trkpt>
<trkpt lat="48.34854010" lon="3.14407140"><ele>70</ele><time>2007-02-15T08:05:47Z</time></trkpt>
<trkpt lat="48.34851400" lon="3.14461060"><ele>72</ele><time>2007-02-15T08:05:47Z</time></trkpt>
<trkpt lat="48.34839720" lon="3.14524950"><ele>72</ele><time>2007-02-15T08:05:47Z</time></trkpt>
<trkpt lat="48.34834990" lon="3.14558600"><ele>72</ele><time>2007-02-15T08:05:47Z</time></trkpt>
<trkpt lat="48.34850400" lon="3.14606050"><ele>75</ele><time>2007-02-15T08:05:47Z</time></trkpt>
<trkpt lat="48.34883470" lon="3.14700980"><ele>77</ele><time>2007-02-15T08:05:47Z</time></trkpt>
<trkpt lat="48.35062490" lon="3.14818400"><ele>86</ele><time>2007-02-15T08:05:47Z</time></trkpt>
<trkpt lat="48.35102780" lon="3.14842630"><ele>87</ele><time>2007-02-15T08:05:47Z</time></trkpt>
<trkpt lat="48.35140710" lon="3.14883690"><ele>88</ele><time>2007-02-15T08:05:47Z</time></trkpt>
<trkpt lat="48.35250280" lon="3.14966330"><ele>91</ele><time>2007-02-15T08:05:47Z</time></trkpt>
<trkpt lat="48.35404510" lon="3.15093500"><ele>95</ele><time>2007-02-15T08:05:47Z</time></trkpt>
<trkpt lat="48.35500680" lon="3.15162450"><ele>98</ele><time>2007-02-15T08:05:47Z</time></trkpt>
<trkpt lat="48.35543020" lon="3.15217070"><ele>99</ele><time>2007-02-15T08:05:47Z</time></trkpt>
<trkpt lat="48.35665910" lon="3.15323530"><ele>102</ele><time>2007-02-15T08:05:47Z</time></trkpt>
<trkpt lat="48.35736040" lon="3.15410740"><ele>102</ele><time>2007-09-09T15:02:41Z</time></trkpt>
<trkpt lat="48.35820180" lon="3.15594190"><ele>102</ele><time>2007-09-09T15:02:41Z</time></trkpt>
<trkpt lat="48.35945150" lon="3.15724310"><ele>103</ele><time>2007-09-09T15:02:41Z</time></trkpt>
<trkpt lat="48.36083470" lon="3.15874890"><ele>105</ele><time>2007-09-09T15:02:41Z</time></trkpt>
<trkpt lat="48.36306580" lon="3.16114500"><ele>105</ele><time>2007-09-09T15:02:41Z</time></trkpt>
<trkpt lat="48.36210670" lon="3.16328870"><ele>108</ele><time>2007-09-09T15:02:41Z</time></trkpt>
<trkpt lat="48.36073920" lon="3.16596550"><ele>107</ele><time>2007-09-09T15:02:41Z</time></trkpt>
<trkpt lat="48.36125780" lon="3.16894200"><ele>111</ele><time>2007-09-09T15:02:41Z</time></trkpt>
<trkpt lat="48.36146390" lon="3.17157620"><ele>115</ele><time>2007-09-09T15:02:41Z</time></trkpt>
<trkpt lat="48.36279480" lon="3.17409350"><ele>111</ele><time>2007-09-09T15:02:41Z</time></trkpt>
<trkpt lat="48.36399020" lon="3.17667620"><ele>108</ele><time>2007-09-09T15:02:41Z</time></trkpt>
<trkpt lat="48.36586180" lon="3.17900010"><ele>102</ele><time>2007-09-09T15:02:41Z</time></trkpt>
<trkpt lat="48.36674590" lon="3.18110580"><ele>101</ele><time>2007-09-09T15:02:41Z</time></trkpt>
<trkpt lat="48.36855600" lon="3.17944820"><ele>99</ele><time>2007-09-09T15:02:41Z</time></trkpt>
<trkpt lat="48.37023460" lon="3.17731610"><ele>98</ele><time>2007-02-15T08:05:47Z</time></trkpt>
<trkpt lat="48.37217940" lon="3.17566040"><ele>94</ele><time>2007-09-09T15:02:41Z</time></trkpt>
<trkpt lat="48.37039190" lon="3.17414740"><ele>93</ele><time>2007-09-09T15:02:41Z</time></trkpt>
<trkpt lat="48.36914050" lon="3.17311540"><ele>93</ele><time>2007-09-09T15:02:41Z</time></trkpt>
<trkpt lat="48.36763800" lon="3.17579010"><ele>101</ele><time>2007-09-09T15:02:41Z</time></trkpt>
<trkpt lat="48.36882680" lon="3.17297540"><ele>94</ele><time>2007-09-09T15:02:41Z</time></trkpt>
<trkpt lat="48.36730900" lon="3.17146690"><ele>96</ele><time>2007-09-09T15:02:41Z</time></trkpt>
<trkpt lat="48.36561130" lon="3.16995560"><ele>102</ele><time>2007-09-09T15:02:41Z</time></trkpt>
<trkpt lat="48.36378310" lon="3.16783520"><ele>107</ele><time>2007-09-09T15:02:41Z</time></trkpt>
<trkpt lat="48.36204090" lon="3.16625600"><ele>111</ele><time>2007-09-09T15:02:41Z</time></trkpt>
<trkpt lat="48.36105860" lon="3.16529600"><ele>109</ele><time>2007-09-09T15:02:41Z</time></trkpt>
<trkpt lat="48.36233480" lon="3.16282010"><ele>107</ele><time>2007-09-09T15:02:41Z</time></trkpt>
<trkpt lat="48.36306620" lon="3.16107760"><ele>105</ele><time>2007-09-09T15:02:41Z</time></trkpt>
<trkpt lat="48.36061230" lon="3.15840810"><ele>104</ele><time>2007-09-09T15:02:41Z</time></trkpt>
<trkpt lat="48.35855810" lon="3.15641960"><ele>102</ele><time>2007-09-09T15:02:41Z</time></trkpt>
<trkpt lat="48.35731540" lon="3.15410670"><ele>102</ele><time>2007-09-09T15:02:41Z</time></trkpt>
<trkpt lat="48.35646880" lon="3.15301430"><ele>102</ele><time>2007-09-09T15:02:41Z</time></trkpt>
<trkpt lat="48.35818240" lon="3.15072950"><ele>106</ele><time>2007-02-15T08:05:47Z</time></trkpt>
<trkpt lat="48.35852190" lon="3.15039750"><ele>105</ele><time>2007-02-15T08:05:47Z</time></trkpt>
<trkpt lat="48.36001110" lon="3.14957730"><ele>103</ele><time>2007-02-15T08:05:47Z</time></trkpt>
<trkpt lat="48.36093820" lon="3.14878220"><ele>99</ele><time>2007-02-15T08:05:47Z</time></trkpt>
<trkpt lat="48.36071620" lon="3.14837400"><ele>99</ele><time>2007-02-15T08:05:47Z</time></trkpt>
<trkpt lat="48.36013920" lon="3.14728570"><ele>98</ele><time>2007-02-15T08:05:47Z</time></trkpt>
<trkpt lat="48.35969270" lon="3.14684040"><ele>96</ele><time>2007-02-15T08:05:47Z</time></trkpt>
<trkpt lat="48.35837340" lon="3.14584190"><ele>94</ele><time>2007-02-15T08:05:47Z</time></trkpt>
<trkpt lat="48.35743630" lon="3.14481560"><ele>93</ele><time>2007-02-15T08:05:47Z</time></trkpt>
<trkpt lat="48.35636400" lon="3.14385470"><ele>94</ele><time>2007-02-15T08:05:47Z</time></trkpt>
<trkpt lat="48.35493240" lon="3.14282090"><ele>93</ele><time>2007-02-15T08:05:47Z</time></trkpt>
<trkpt lat="48.35367930" lon="3.14199220"><ele>92</ele><time>2007-02-15T08:05:47Z</time></trkpt>
<trkpt lat="48.35332040" lon="3.14188550"><ele>91</ele><time>2007-02-15T08:05:47Z</time></trkpt>
<trkpt lat="48.35300810" lon="3.14154350"><ele>92</ele><time>2007-02-15T08:05:47Z</time></trkpt>
<trkpt lat="48.35262000" lon="3.13910930"><ele>98</ele><time>2007-02-15T08:05:47Z</time></trkpt>
<trkpt lat="48.35196690" lon="3.13930170"><ele>96</ele><time>2007-02-15T08:05:47Z</time></trkpt>
<trkpt lat="48.35142510" lon="3.13963060"><ele>94</ele><time>2007-02-15T08:05:47Z</time></trkpt>
<trkpt lat="48.35076900" lon="3.14026130"><ele>90</ele><time>2007-02-15T08:05:47Z</time></trkpt>
<trkpt lat="48.34996260" lon="3.13984430"><ele>87</ele><time>2007-02-15T08:05:47Z</time></trkpt>
<trkpt lat="48.35044680" lon="3.13806440"><ele>90</ele><time>2007-02-15T08:05:47Z</time></trkpt>
<trkpt lat="48.35126960" lon="3.13605360"><ele>91</ele><time>2007-02-15T08:05:47Z</time></trkpt>
<trkpt lat="48.35175390" lon="3.13423990"><ele>89</ele><time>2007-02-15T08:05:47Z</time></trkpt>
<trkpt lat="48.35140210" lon="3.13397260"><ele>85</ele><time>2007-02-15T08:05:47Z</time></trkpt>
</trkseg></trk></gpx>